Regional Weather Roundup
Issued by NWS

Home | Current Version | Previous Version | Graphics & Text | Print | Product List | Glossary On
Versions: 1 2 3 4 5 6 7 8 9 10 11 12 13 14 15 16 17 18 19 20 21 22 23 24 25 26 27 28 29 30 31 32 33 34 35 36 37 38 39 40 41 42 43 44 45 46 47 48 49 50
532
ASUS43 KFSD 251010
RWRSD

WEATHER ROUNDUP FOR SOUTH DAKOTA
NATIONAL WEATHER SERVICE SIOUX FALLS SD
500 AM CDT MON SEP 25 2017

NOTE: "FAIR" INDICATES FEW OR NO CLOUDS BELOW 12,000 FEET WITH NO
SIGNIFICANT WEATHER AND/OR OBSTRUCTIONS TO VISIBILITY.


SDZ001>005-009-010-012>017-251100-
NORTHWEST AND NORTH CENTRAL SOUTH DAKOTA

CITY           SKY/WX    TMP DP  RH WIND       PRES   REMARKS
BUFFALO          N/A     41  40  96 NW6       30.06S
FAITH            N/A     46  43  89 NE3       30.14R
MOBRIDGE       CLOUDY    50  46  86 N5        30.11R
$$

SDZ012>016-024>037-041>051-057-063-072>074-251100-
SOUTHWEST AND SOUTH CENTRAL SOUTH DAKOTA

CITY           SKY/WX    TMP DP  RH WIND       PRES   REMARKS
RAPID CTY ARPT NOT AVBL
PIERRE         CLOUDY    49  44  83 NE10      30.09S
CUSTER         CLOUDY    36  34  92 NE3       30.11S
ELLSWORTH AFB  LGT RAIN  45  45 100 N5        30.12
PHILIP         CLOUDY    48  45  89 N6        30.15R
PINE RIDGE     CLOUDY    45  43  93 NE7       30.12F
SPEARFISH      LGT RAIN  41  41 100 CALM      30.13S
WINNER         CLOUDY    51  47  86 N8        30.09R
$$

SDZ004>011-016>023-039-040-251100-
NORTHEAST SOUTH DAKOTA

CITY           SKY/WX    TMP DP  RH WIND       PRES   REMARKS
ABERDEEN       CLOUDY    49  46  90 NW9       30.10R
WATERTOWN      CLOUDY    49  47  93 N13       30.03R
BROOKINGS      LGT RAIN  50  49  96 N8        30.04S
SISSETON         N/A     51  47  86 N12       30.05R
$$

SDZ017-020-022-023-036>040-048>070-251100-
SOUTHEAST SOUTH DAKOTA

CITY           SKY/WX    TMP DP  RH WIND       PRES   REMARKS
SIOUX FALLS    LGT RAIN  54  53  97 N10       30.01R
HURON          CLOUDY    50  48  93 N10       30.08R
CHAMBERLAIN    CLOUDY    51  49  93 N10       30.07S
MITCHELL       LGT RAIN  51  50  96 N9        30.07R
YANKTON        LGT RAIN  52  51  97 NW10      30.01F
$$

ABBREVIATIONS USED IN REMARKS
   TC - TEMPERATURE IN CELSIUS
  WCI - WIND CHILL INDEX
   HX - HEAT INDEX
  VSB - VISIBILITY





USA.gov is the U.S. government's official web portal to all federal, state and local government web resources and services.